Location: Central Falls
(41.8900°N, 71.3929°W)
Time: 14:28:56
(UTC+00:00)

Vanguard 2 - Pass Details

Date: 09 December 2023
Orbit: 554 x 2918 km, 32.9° (Epoch: 04 March)

Event Time Altitude Azimuth Distance (km) Brightness Sun altitude
Rises 00:21:54 0° 232° (SW) 6,472 12.9 -34.1°
Reaches altitude 10° 00:26:12 10° 227° (SW) 5,611 12.4 -34.9°
Maximum altitude 00:42:43 50° 160° (SSE) 3,397 10.4 -37.9°
Enters shadow 00:44:32 48° 144° (SE) 3,395 10.4 -38.3°
